Theta_e
350 349 349 348 345 346 348 350 350 348 348 349 350 349 348 350 349 350 351 350 348 349 351 351 350 348 349 350 349 348 351 349 346 350 350 348 346 341 348 350 349 347 346
349 349 351 349 349 347 346 347 348 348 347 349 348 348 347 348 349 351 349 352 351 350 350 350 348 348 351 351 351 350 351 350 348 346 349 347 345 340 345 350 350 350 349
350 350 349 349 349 348 347 345 347 347 348 351 350 349 348 348 348 349 351 352 351 350 350 351 351 351 349 350 351 350 349 349 350 351 346 347 347 348 345 347 345 347 349
350 350 350 350 349 349 348 349 348 348 348 351 350 349 348 350 350 350 349 350 351 352 351 350 350 350 351 350 349 351 350 350 349 349 350 349 349 349 348 346 347 349 349
351 351 352 353 351 351 350 350 350 350 352 350 349 351 349 349 350 350 350 350 351 352 352 351 350 350 350 349 351 349 349 350 349 349 350 350 349 349 349 348 349 347 347
352 351 352 353 353 353 351 351 351 351 351 351 351 351 350 351 351 350 350 350 350 350 350 350 349 348 349 349 349 350 349 350 349 348 348 348 348 347 347 348 347 346 345
354 353 353 353 354 353 352 350 350 350 350 351 351 351 352 351 350 347 348 349 349 349 349 350 349 349 349 348 349 349 349 350 350 350 350 349 348 347 347 346 347 347 346
353 354 351 350 352 352 351 352 352 352 353 352 352 351 351 350 350 347 345 343 348 349 349 349 348 348 348 349 348 348 349 349 349 349 349 348 349 349 350 348 347 346 346
352 351 354 354 353 353 352 352 353 353 352 352 351 350 349 349 348 348 348 348 348 349 349 348 347 348 348 347 347 348 349 350 348 349 350 350 349 349 350 349 349 347 345
352 351 354 354 354 352 352 354 354 353 351 347 346 345 345 346 346 346 346 347 348 348 348 347 347 347 347 347 347 347 348 348 347 347 349 349 349 348 348 350 348 347 346
353 353 355 354 354 354 355 354 352 349 346 347 347 343 343 344 342 342 344 345 346 347 347 346 346 346 346 345 345 346 346 346 347 347 348 348 349 349 348 347 347 347 345
352 354 355 356 356 355 354 350 348 347 346 345 341 341 343 343 344 344 345 345 347 346 346 344 342 342 342 342 343 343 342 341 342 341 342 343 344 346 347 347 346 346 346
355 357 356 356 355 352 349 347 344 342 343 342 341 342 341 343 342 344 346 346 346 344 341 340 339 338 335 332 332 339 341 341 341 339 340 340 341 342 342 340 341 340 342
357 356 355 353 350 348 346 345 343 343 345 345 345 340 339 339 340 342 343 342 341 340 338 337 334 332 331 331 330 332 339 341 340 340 340 340 340 339 338 338 338 337 336
355 351 349 344 343 345 345 344 345 345 345 343 340 337 336 335 334 334 335 334 332 331 331 330 329 329 329 329 329 330 337 341 341 341 340 337 335 335 334 333 334 332 330
350 347 345 345 346 346 347 347 345 344 343 339 337 336 335 333 332 331 331 330 328 327 327 326 326 326 327 327 328 329 339 341 340 338 335 333 332 332 332 330 329 328 326
346 346 346 348 348 347 347 348 346 342 339 337 335 335 334 333 331 331 330 328 328 327 325 325 325 326 327 329 334 336 337 336 333 331 330 330 330 329 326 325 325 324 320
347 348 347 343 340 337 337 334 334 335 334 333 333 334 332 331 331 330 328 326 326 327 328 329 329 329 330 333 332 332 332 331 330 328 327 327 326 325 323 323 322 321 319
344 342 342 337 333 334 334 333 332 331 330 331 333 333 332 331 330 328 327 326 326 325 327 329 330 330 329 328 328 328 328 327 326 325 324 323 322 322 321 321 321 320 319
342 337 333 334 333 331 331 331 333 333 333 334 334 332 330 329 328 328 327 326 326 325 327 327 327 326 326 325 325 325 324 323 322 321 321 320 320 320 320 321 320 320 319
341 334 336 333 329 331 332 332 333 331 329 330 332 333 332 329 328 327 326 326 325 325 325 325 324 324 324 323 323 322 321 320 320 319 319 319 319 319 319 320 320 320 319
337 337 337 332 331 332 331 329 329 331 330 330 332 331 330 328 326 326 325 325 325 325 325 323 323 322 322 322 321 320 320 319 318 318 318 318 318 318 319 320 319 319 319
337 335 333 332 332 331 329 329 328 329 329 330 330 330 328 327 327 326 326 326 326 324 322 322 322 321 321 320 320 320 319 318 318 318 318 317 318 319 319 320 319 318 319
339 338 334 332 330 330 329 330 330 330 330 330 329 328 328 328 327 326 326 326 325 323 322 321 321 320 319 319 319 319 318 318 318 319 320 320 320 320 319 318 318 318 318
334 334 333 331 331 330 330 330 331 330 330 329 329 329 328 328 328 327 326 326 325 324 323 322 322 321 321 320 318 317 318 318 318 318 318 318 317 316 316 316 317 318 318
334 333 332 331 331 331 330 331 331 331 329 329 330 329 328 329 329 329 328 327 325 324 324 321 319 318 318 318 318 316 315 314 315 315 315 315 315 316 316 317 320 320 319
Wind_Speed
34 34 30 27 25 22 18 15 12 13 12 14 14 18 18 15 15 15 15 14 13 13 10 12 14 15 12 10 9 5 1 1 3 5 11 16 16 14 12 17 17 18 18
36 34 31 26 25 24 22 20 16 14 17 14 14 14 15 15 16 17 15 16 15 14 14 16 16 11 12 12 11 9 6 5 5 8 11 13 12 11 11 18 16 18 21
33 32 30 26 26 25 23 22 20 17 16 15 15 16 17 17 17 18 16 16 18 18 16 16 16 16 18 17 16 16 12 10 9 8 10 17 16 14 12 17 18 19 21
33 32 31 29 27 26 24 22 21 21 18 20 20 17 15 15 15 17 17 17 17 18 18 17 17 19 19 18 18 20 18 15 14 12 12 11 13 15 17 19 20 23 22
35 33 33 29 28 27 24 23 21 21 22 21 19 21 16 15 16 15 16 16 18 19 18 17 18 18 18 17 17 19 19 18 17 14 14 12 9 10 16 21 24 22 21
32 34 33 28 29 28 25 23 19 18 18 17 16 16 17 17 17 17 17 17 16 16 20 20 20 20 20 21 20 19 18 17 20 19 18 17 17 13 13 17 21 11 6
34 34 32 29 27 26 21 20 19 17 15 12 13 14 16 15 14 15 15 16 16 17 17 18 19 22 22 21 20 19 19 16 21 24 24 25 22 21 19 15 19 20 20
33 33 25 26 26 20 18 17 14 13 11 9 9 9 10 12 12 12 14 15 15 12 13 13 15 18 20 19 19 20 21 19 19 21 24 26 25 23 23 24 23 25 22
30 29 24 24 21 17 16 14 12 12 11 10 9 10 12 12 11 12 12 12 13 12 12 11 11 13 14 16 19 23 25 25 22 21 24 25 24 22 21 20 20 19 12
27 28 24 20 15 14 14 14 14 13 10 8 8 8 9 11 9 10 11 12 12 12 10 10 10 11 10 11 12 15 21 26 24 22 22 23 24 25 24 26 24 19 13
23 22 20 16 15 13 13 13 12 10 9 9 9 9 9 10 12 12 12 14 14 12 11 10 11 13 14 13 13 11 12 15 16 17 19 21 23 22 23 23 22 23 24
20 20 19 18 17 15 13 12 11 11 11 11 9 7 7 8 8 9 9 10 11 10 8 8 9 9 12 12 13 13 13 14 15 15 13 12 12 11 12 15 18 19 18
22 20 19 18 16 15 15 14 12 11 11 10 10 7 3 1 4 1 7 10 10 9 8 7 6 8 10 13 14 14 15 14 14 13 12 10 9 7 6 5 4 6 6
23 21 20 20 17 16 16 15 15 13 12 12 8 10 10 7 4 4 5 5 6 8 9 10 12 15 16 16 16 15 14 15 13 11 9 7 5 5 5 6 8 8 7
24 23 19 17 16 15 15 16 17 17 13 13 12 13 13 10 7 5 6 7 9 12 14 17 18 18 18 17 16 15 14 12 10 9 7 7 8 8 10 10 10 10 7
24 21 20 18 18 18 19 19 15 16 13 12 12 12 11 8 6 4 5 7 9 12 13 14 15 15 14 16 16 13 8 10 10 9 9 10 10 11 9 8 9 11 10
23 22 21 20 18 17 17 18 16 13 11 12 11 11 11 9 7 6 7 10 12 9 7 8 10 10 10 10 8 6 8 7 8 9 10 11 9 7 7 9 10 11 14
23 21 19 15 12 10 9 9 8 10 11 12 14 13 11 9 6 6 6 7 6 5 6 10 10 8 8 6 5 6 8 9 10 9 8 7 7 8 10 11 14 16 17
21 17 15 13 9 9 8 8 8 8 9 11 11 13 13 10 8 9 9 8 6 7 8 7 4 4 6 8 8 7 7 8 7 6 6 6 8 10 12 15 17 19 21
21 18 14 12 9 9 7 6 7 7 7 7 11 13 12 10 11 11 10 9 8 8 8 8 8 8 8 6 5 4 4 4 4 6 7 8 10 12 16 19 21 22 20
23 19 15 11 8 7 4 2 5 4 4 3 9 13 11 10 10 11 10 9 10 8 7 6 6 6 5 4 4 4 5 5 6 7 9 11 12 16 19 22 23 21 23
24 21 21 14 10 7 7 5 5 5 3 3 7 11 10 10 10 8 8 7 4 3 4 5 4 2 2 2 3 4 5 6 7 8 10 12 14 17 20 22 21 22 21
26 23 21 15 12 12 10 8 8 5 4 5 8 9 9 9 7 5 3 3 1 2 2 0 3 4 4 3 2 3 5 6 8 11 13 15 19 21 22 24 21 18 15
24 25 22 18 18 15 9 8 10 8 6 8 8 8 8 8 7 6 5 4 5 4 5 5 6 7 7 7 7 7 7 9 13 15 17 20 21 24 24 20 14 7 11
20 21 22 21 19 14 10 9 13 11 7 8 9 10 8 9 9 7 6 6 6 6 6 5 4 4 6 9 11 11 11 13 14 15 15 16 16 17 16 13 9 11 11
14 13 16 19 17 12 8 12 14 12 10 8 8 9 9 10 11 8 8 11 10 9 7 7 8 10 11 11 11 12 12 11 11 11 12 13 15 17 14 16 12 16 18
Wind_Direction
200 200 200 204 205 209 211 208 213 212 199 194 183 195 209 213 223 234 244 246 250 260 279 262 272 284 288 288 300 321 308 203 174 215 228 231 241 244 231 220 215 227 228
202 203 201 200 204 211 215 220 221 223 203 209 209 216 224 227 229 230 242 245 254 260 269 263 272 279 275 277 279 278 272 239 242 237 234 236 233 217 231 219 231 236 234
201 202 205 207 208 213 216 220 221 224 216 221 222 227 230 235 238 235 238 245 256 261 267 260 267 270 270 271 270 273 263 257 257 243 245 235 248 262 234 231 246 245 232
199 202 202 207 212 213 213 215 220 230 230 230 229 234 236 243 245 245 247 249 255 262 267 259 265 266 269 273 278 277 268 265 250 247 244 234 244 253 243 238 235 229 229
194 202 209 211 216 218 218 222 229 237 233 236 236 230 237 241 244 250 253 259 260 261 263 261 262 266 265 265 273 282 268 270 264 257 249 242 229 221 230 235 236 238 241
193 201 209 210 217 220 224 225 229 234 234 228 230 231 236 241 247 248 252 255 260 262 259 258 261 263 263 267 265 269 272 269 259 255 253 248 253 245 241 246 237 215 242
198 204 209 209 217 225 218 228 230 243 245 232 231 240 242 245 243 250 250 255 257 259 261 259 260 263 265 267 266 266 261 267 259 259 255 255 256 254 255 244 230 226 232
199 204 208 211 217 208 219 220 224 222 219 219 227 233 247 253 246 249 257 256 254 252 263 267 270 272 266 266 268 268 268 268 263 258 258 266 267 271 270 265 261 255 249
200 206 199 197 201 205 211 212 209 212 215 222 239 247 254 259 253 252 255 260 257 263 268 272 284 286 283 274 270 266 267 269 270 265 265 269 270 272 270 263 250 227 228
208 210 200 202 211 212 214 207 198 207 226 223 222 227 240 256 262 262 254 253 257 265 268 277 283 289 289 289 284 279 273 272 273 273 270 268 270 268 267 260 257 233 217
207 206 201 210 215 214 201 206 215 214 205 215 231 243 261 278 285 274 262 254 242 250 265 275 279 286 286 287 290 285 278 282 278 271 273 271 269 268 265 266 264 259 256
201 200 202 207 204 199 201 200 198 204 215 228 250 277 316 295 275 247 229 237 246 253 264 279 292 300 299 296 292 293 290 281 279 284 285 291 297 293 281 273 267 262 253
193 200 199 200 197 193 193 191 204 224 242 258 260 264 187 98 28 34 188 204 213 229 248 257 265 285 297 299 297 286 283 278 278 279 285 294 292 300 303 293 262 239 235
187 189 180 175 181 190 207 213 218 235 247 259 247 190 181 170 166 187 194 203 221 243 262 262 274 285 288 293 295 285 277 268 263 266 271 264 259 276 264 274 261 251 248
175 173 180 190 193 204 217 225 235 245 257 238 230 213 197 201 195 206 231 251 264 272 272 274 279 282 286 289 292 290 288 257 238 237 233 255 266 279 279 267 252 221 216
178 187 192 195 208 221 228 233 246 252 252 242 243 233 229 226 230 249 269 286 289 280 269 271 278 283 283 289 290 278 262 217 222 237 259 266 273 275 260 232 220 204 189
190 196 202 212 221 235 237 234 249 251 241 233 235 242 246 251 242 268 290 306 306 294 276 282 281 284 290 288 285 251 230 235 247 259 263 268 258 242 217 198 186 175 145
203 205 204 203 205 207 199 206 220 226 233 246 247 240 240 250 254 276 294 323 313 300 286 296 283 289 278 276 282 276 268 265 271 271 256 238 218 200 186 176 164 146 136
195 197 200 193 190 207 211 213 239 250 253 263 249 233 227 234 257 266 269 273 301 291 288 308 275 271 281 290 284 270 263 263 256 237 217 201 188 180 173 163 151 143 137
190 186 184 183 183 195 217 251 295 275 258 245 241 235 219 226 253 274 274 273 285 290 286 288 283 287 290 284 267 251 233 215 206 200 189 182 176 176 163 153 142 136 135
196 188 187 192 209 214 249 244 233 207 205 240 229 227 220 240 256 269 269 265 284 282 278 280 281 282 277 265 246 213 193 180 179 180 174 170 167 161 155 147 141 141 142
199 197 192 199 190 192 204 220 216 232 263 254 201 189 210 244 267 266 264 270 255 265 289 289 270 265 259 231 207 193 181 171 165 166 163 157 155 151 147 143 144 145 147
200 199 198 195 190 194 202 216 205 216 256 236 213 206 226 250 262 261 220 199 198 35 3 102 146 147 142 142 155 176 169 161 158 155 152 147 147 147 145 143 144 151 161
217 219 203 194 189 195 207 203 219 222 230 226 229 224 223 227 233 214 205 212 186 137 125 120 109 101 104 119 125 120 121 129 138 142 146 149 150 152 152 151 153 153 181
201 195 195 201 211 210 211 217 212 208 224 242 217 214 221 218 226 220 224 217 204 193 174 160 157 136 124 119 114 117 127 133 142 150 158 166 167 170 174 184 203 197 201
211 219 225 222 210 199 211 204 209 218 221 214 220 222 227 218 225 232 233 227 224 223 210 175 150 146 141 138 135 139 143 148 154 166 179 189 200 201 219 226 255 251 214